EJU12LE LPPR-LEMH

Flight info

Callsign EJU12LE
Flight time 1h 45m
Altitude 37000
Route PESUL DCT RIVRO DCT BARDI M191 DIPOL M871 NVS DCT NANDO M871 ORVUS DCT GODOX M871 PTC
Aircraft A320/M-SDE3FGHIRWY/LB1

Departure

Time 2026-04-22 15:46
Airport Francisco de Sá Carneiro Airport (LPPR)

Arrival

Time 2026-04-22 17:31
Airport Menorca Airport (LEMH)
Time Latitude Longitude Altitude Speed Heading
2026-04-22 15:37 41.23776 -8.67295 245 ft 0 kts 49°
2026-04-22 15:40 41.23775 -8.67296 245 ft 2 kts 49°
2026-04-22 15:40 41.23758 -8.67322 244 ft 4 kts 49°
2026-04-22 15:41 41.23741 -8.67349 243 ft 4 kts 49°
2026-04-22 15:41 41.23726 -8.67376 241 ft 4 kts 78°
2026-04-22 15:41 41.23729 -8.67408 240 ft 4 kts 123°
2026-04-22 15:41 41.23732 -8.67413 240 ft 0 kts 126°
2026-04-22 15:43 41.23725 -8.67401 240 ft 4 kts 126°
2026-04-22 15:43 41.23700 -8.67362 241 ft 4 kts 137°
2026-04-22 15:43 41.23630 -8.67330 242 ft 21 kts 172°
2026-04-22 15:44 41.23483 -8.67385 240 ft 23 kts 175°
2026-04-22 15:44 41.23344 -8.67380 237 ft 13 kts 227°
2026-04-22 15:44 41.23325 -8.67476 237 ft 13 kts 256°
2026-04-22 15:44 41.23306 -8.67607 236 ft 16 kts 261°
2026-04-22 15:45 41.23324 -8.67734 238 ft 14 kts 332°
2026-04-22 15:45 41.23441 -8.67767 236 ft 26 kts 349°
2026-04-22 15:45 41.23865 -8.67879 224 ft 97 kts 348°
2026-04-22 15:45 41.24720 -8.68105 208 ft 151 kts 348°
2026-04-22 15:46 41.25795 -8.68418 685 ft 157 kts 345°
2026-04-22 15:46 41.26872 -8.68717 1384 ft 160 kts 345°
2026-04-22 15:46 41.28005 -8.69013 1885 ft 175 kts 348°
2026-04-22 15:46 41.29277 -8.69340 2222 ft 197 kts 348°
2026-04-22 15:47 41.30707 -8.69707 2516 ft 222 kts 347°
2026-04-22 15:47 41.32306 -8.70118 2919 ft 246 kts 348°
2026-04-22 15:47 41.34056 -8.70569 3495 ft 264 kts 349°
2026-04-22 15:47 41.35891 -8.71043 4285 ft 273 kts 349°
2026-04-22 15:48 41.37750 -8.71525 5144 ft 279 kts 350°
2026-04-22 15:48 41.39689 -8.71767 5987 ft 285 kts
2026-04-22 15:48 41.41529 -8.70855 6788 ft 285 kts 37°
2026-04-22 15:48 41.42840 -8.68905 7552 ft 285 kts 65°
2026-04-22 15:49 41.43402 -8.66379 8345 ft 287 kts 82°
2026-04-22 15:49 41.43708 -8.63736 9109 ft 291 kts 91°
2026-04-22 15:49 41.43432 -8.61072 9870 ft 292 kts 111°
2026-04-22 15:49 41.42511 -8.58653 10435 ft 300 kts 130°
2026-04-22 15:50 41.40955 -8.56700 10673 ft 318 kts 149°
2026-04-22 15:50 41.39053 -8.55082 11190 ft 328 kts 149°
2026-04-22 15:50 41.37113 -8.53432 11934 ft 332 kts 149°
2026-04-22 15:50 41.35162 -8.51764 12709 ft 335 kts 149°
2026-04-22 15:51 41.33201 -8.50074 13461 ft 337 kts 149°
2026-04-22 15:51 41.31225 -8.48366 14156 ft 340 kts 149°
2026-04-22 15:51 41.29232 -8.46645 14781 ft 343 kts 149°
2026-04-22 15:51 41.27219 -8.44907 15391 ft 347 kts 150°
2026-04-22 15:52 41.25186 -8.43153 15981 ft 351 kts 150°
2026-04-22 15:52 41.23126 -8.41375 16581 ft 355 kts 150°
2026-04-22 15:52 41.21046 -8.39580 17180 ft 359 kts 150°
2026-04-22 15:52 41.18941 -8.37768 17773 ft 363 kts 151°
2026-04-22 15:53 41.16812 -8.35940 18356 ft 366 kts 151°
2026-04-22 15:53 41.14659 -8.34094 18834 ft 370 kts 151°
2026-04-22 15:53 41.12482 -8.32236 19310 ft 374 kts 151°
2026-04-22 15:53 41.10283 -8.30358 19780 ft 378 kts 151°
2026-04-22 15:54 41.08066 -8.28459 20262 ft 381 kts 151°
2026-04-22 15:54 41.05825 -8.26536 20762 ft 385 kts 152°
2026-04-22 15:54 41.03571 -8.24607 21223 ft 388 kts 152°
2026-04-22 15:54 41.01288 -8.22659 21684 ft 392 kts 152°
2026-04-22 15:55 40.98984 -8.20697 22152 ft 395 kts 152°
2026-04-22 15:55 40.96663 -8.18722 22596 ft 399 kts 152°
2026-04-22 15:55 40.95115 -8.17404 22898 ft 401 kts 152°
2026-04-22 15:55 40.92765 -8.15391 23358 ft 405 kts 150°
2026-04-22 15:56 40.90582 -8.12968 23757 ft 415 kts 139°
2026-04-22 15:56 40.88761 -8.09952 24100 ft 425 kts 127°
2026-04-22 15:56 40.87411 -8.06441 24483 ft 434 kts 115°
2026-04-22 15:56 40.86577 -8.02577 24856 ft 440 kts 107°
2026-04-22 15:57 40.85653 -7.97344 25359 ft 443 kts 107°
2026-04-22 15:57 40.85174 -7.94660 25598 ft 445 kts 107°
2026-04-22 15:57 40.84454 -7.90670 25954 ft 448 kts 107°
2026-04-22 15:57 40.83721 -7.86663 26314 ft 450 kts 107°
2026-04-22 15:58 40.82982 -7.82639 26675 ft 452 kts 108°
2026-04-22 15:58 40.82238 -7.78595 27022 ft 454 kts 108°
2026-04-22 15:58 40.81490 -7.74534 27390 ft 456 kts 108°
2026-04-22 15:58 40.80741 -7.70452 27748 ft 458 kts 108°
2026-04-22 15:59 40.79989 -7.66354 28104 ft 461 kts 108°
2026-04-22 15:59 40.79231 -7.62235 28443 ft 463 kts 108°
2026-04-22 15:59 40.78471 -7.58096 28769 ft 465 kts 107°
2026-04-22 15:59 40.77707 -7.53944 29095 ft 468 kts 107°
2026-04-22 16:00 40.76946 -7.49818 29415 ft 470 kts 108°
2026-04-22 16:00 40.76159 -7.45569 29733 ft 472 kts 108°
2026-04-22 16:00 40.75385 -7.41417 30040 ft 474 kts 108°
2026-04-22 16:00 40.74596 -7.37191 30304 ft 476 kts 108°
2026-04-22 16:01 40.73800 -7.32947 30549 ft 478 kts 108°
2026-04-22 16:01 40.73000 -7.28691 30818 ft 479 kts 108°
2026-04-22 16:01 40.72199 -7.24423 31081 ft 480 kts 108°
2026-04-22 16:01 40.71396 -7.20151 31351 ft 481 kts 107°
2026-04-22 16:02 40.70592 -7.15878 31730 ft 479 kts 107°
2026-04-22 16:02 40.69791 -7.11633 32111 ft 477 kts 107°
2026-04-22 16:02 40.68990 -7.07400 32485 ft 475 kts 107°
2026-04-22 16:02 40.68190 -7.03180 32851 ft 474 kts 107°
2026-04-22 16:03 40.67392 -6.98975 33206 ft 473 kts 107°
2026-04-22 16:03 40.66594 -6.94779 33583 ft 471 kts 107°
2026-04-22 16:03 40.65799 -6.90599 33946 ft 470 kts 107°
2026-04-22 16:03 40.65002 -6.86427 34269 ft 469 kts 107°
2026-04-22 16:04 40.64207 -6.82274 34574 ft 467 kts 107°
2026-04-22 16:04 40.63407 -6.78130 34871 ft 466 kts 107°
2026-04-22 16:04 40.62608 -6.74002 35149 ft 465 kts 106°
2026-04-22 16:04 40.62038 -6.69804 35401 ft 467 kts 99°
2026-04-22 16:05 40.61656 -6.65558 35639 ft 467 kts 99°
2026-04-22 16:05 40.61270 -6.61321 35890 ft 466 kts 99°
2026-04-22 16:05 40.60882 -6.57089 36134 ft 465 kts 99°
2026-04-22 16:05 40.60491 -6.52862 36382 ft 465 kts 99°
2026-04-22 16:06 40.60095 -6.48646 36612 ft 464 kts 99°
2026-04-22 16:06 40.59697 -6.44433 36826 ft 463 kts 99°
2026-04-22 16:06 40.59299 -6.40229 36974 ft 463 kts 99°
2026-04-22 16:06 40.58901 -6.36035 37008 ft 461 kts 99°
2026-04-22 16:07 40.58103 -6.27675 37004 ft 460 kts 99°
2026-04-22 16:07 40.57301 -6.19326 37007 ft 460 kts 99°
2026-04-22 16:08 40.56492 -6.10979 37008 ft 460 kts 99°
2026-04-22 16:08 40.55684 -6.02640 37010 ft 460 kts 99°
2026-04-22 16:09 40.54868 -5.94307 37011 ft 460 kts 99°
2026-04-22 16:09 40.54042 -5.85978 37010 ft 459 kts 99°
2026-04-22 16:10 40.53209 -5.77645 37011 ft 460 kts 99°
2026-04-22 16:10 40.52370 -5.69316 37005 ft 460 kts 99°
2026-04-22 16:11 40.51529 -5.61048 37019 ft 459 kts 99°
2026-04-22 16:11 40.50680 -5.52725 37019 ft 459 kts 99°
2026-04-22 16:12 40.49830 -5.44406 37013 ft 459 kts 99°
2026-04-22 16:12 40.48969 -5.36083 37013 ft 459 kts 99°
2026-04-22 16:13 40.48102 -5.27773 37021 ft 459 kts 99°
2026-04-22 16:13 40.47231 -5.19467 37018 ft 459 kts 99°
2026-04-22 16:14 40.46350 -5.11166 37017 ft 459 kts 99°
2026-04-22 16:14 40.45466 -5.02870 37023 ft 459 kts 99°
2026-04-22 16:15 40.44578 -4.94583 37009 ft 458 kts 99°
2026-04-22 16:15 40.43681 -4.86300 37018 ft 458 kts 99°
2026-04-22 16:16 40.42778 -4.78023 37014 ft 458 kts 99°
2026-04-22 16:16 40.41873 -4.69807 37013 ft 458 kts 99°
2026-04-22 16:17 40.40967 -4.61542 37013 ft 458 kts 99°
2026-04-22 16:17 40.40058 -4.53279 37017 ft 457 kts 99°
2026-04-22 16:18 40.39141 -4.45026 37013 ft 457 kts 99°
2026-04-22 16:18 40.38212 -4.36787 37012 ft 457 kts 99°
2026-04-22 16:19 40.37275 -4.28545 37009 ft 457 kts 99°
2026-04-22 16:19 40.36214 -4.20341 37012 ft 456 kts 102°
2026-04-22 16:20 40.34787 -4.12239 37010 ft 456 kts 105°
2026-04-22 16:20 40.33263 -4.04177 37011 ft 456 kts 104°
2026-04-22 16:21 40.31797 -3.96089 37008 ft 456 kts 104°
2026-04-22 16:21 40.30384 -3.87993 37008 ft 456 kts 103°
2026-04-22 16:22 40.28262 -3.75855 37023 ft 456 kts 104°
2026-04-22 16:23 40.26088 -3.63730 37026 ft 456 kts 104°
2026-04-22 16:23 40.24636 -3.55648 37019 ft 456 kts 104°
2026-04-22 16:24 40.22454 -3.43528 37009 ft 456 kts 104°
2026-04-22 16:25 40.20996 -3.35450 37003 ft 456 kts 103°
2026-04-22 16:25 40.18794 -3.23349 36993 ft 456 kts 104°
2026-04-22 16:26 40.17313 -3.15291 36989 ft 456 kts 104°
2026-04-22 16:26 40.15831 -3.07233 36992 ft 456 kts 104°
2026-04-22 16:27 40.14338 -2.99182 36993 ft 456 kts 103°
2026-04-22 16:27 40.12847 -2.91194 36994 ft 455 kts 103°
2026-04-22 16:28 40.11353 -2.83158 36990 ft 455 kts 103°
2026-04-22 16:28 40.09855 -2.75127 36990 ft 455 kts 103°
2026-04-22 16:29 40.08357 -2.67100 36996 ft 455 kts 103°
2026-04-22 16:29 40.06845 -2.59079 36998 ft 455 kts 103°
2026-04-22 16:30 40.05324 -2.51061 36999 ft 455 kts 103°
2026-04-22 16:30 40.03800 -2.43056 37000 ft 455 kts 103°
2026-04-22 16:31 40.02266 -2.35052 36999 ft 455 kts 103°
2026-04-22 16:31 40.00729 -2.27050 37004 ft 455 kts 103°
2026-04-22 16:32 39.99193 -2.19050 37007 ft 455 kts 103°
2026-04-22 16:32 39.97529 -2.11098 37007 ft 455 kts 106°
2026-04-22 16:33 39.95651 -2.03222 37008 ft 455 kts 107°
2026-04-22 16:33 39.93750 -1.95357 37011 ft 455 kts 107°
2026-04-22 16:34 39.91904 -1.87532 37011 ft 455 kts 106°
2026-04-22 16:34 39.90068 -1.79646 37012 ft 455 kts 105°
2026-04-22 16:35 39.88224 -1.71768 37018 ft 455 kts 106°
2026-04-22 16:35 39.86364 -1.63894 37011 ft 455 kts 106°
2026-04-22 16:36 39.84494 -1.56024 37008 ft 455 kts 106°
2026-04-22 16:36 39.82622 -1.48161 36983 ft 455 kts 106°
2026-04-22 16:37 39.80750 -1.40291 36969 ft 455 kts 106°
2026-04-22 16:37 39.78260 -1.32742 36948 ft 457 kts 123°
2026-04-22 16:38 39.76312 -1.29493 36944 ft 456 kts 134°
2026-04-22 16:38 39.73956 -1.26741 36939 ft 456 kts 144°
2026-04-22 16:38 39.71273 -1.24568 36939 ft 454 kts 155°
2026-04-22 16:38 39.68398 -1.22867 36934 ft 454 kts 157°
2026-04-22 16:39 39.62635 -1.19504 36938 ft 454 kts 156°
2026-04-22 16:39 39.57085 -1.15598 36932 ft 456 kts 142°
2026-04-22 16:40 39.52705 -1.09708 36933 ft 456 kts 123°
2026-04-22 16:41 39.47962 -0.99034 36932 ft 457 kts 118°
2026-04-22 16:41 39.44805 -0.91889 36940 ft 458 kts 119°
2026-04-22 16:42 39.41647 -0.84738 36937 ft 458 kts 118°
2026-04-22 16:42 39.38505 -0.77573 36933 ft 458 kts 118°
2026-04-22 16:43 39.35350 -0.70411 36928 ft 459 kts 118°
2026-04-22 16:43 39.32173 -0.63252 36930 ft 460 kts 118°
2026-04-22 16:44 39.29809 -0.57130 36914 ft 458 kts 107°
2026-04-22 16:44 39.28630 -0.49145 36912 ft 452 kts 88°
2026-04-22 16:45 39.28989 -0.41086 36912 ft 450 kts 83°
2026-04-22 16:45 39.29419 -0.33027 36915 ft 450 kts 83°
2026-04-22 16:46 39.29823 -0.24951 36922 ft 450 kts 83°
2026-04-22 16:46 39.30237 -0.16880 36924 ft 451 kts 83°
2026-04-22 16:47 39.30650 -0.08804 36933 ft 451 kts 83°
2026-04-22 16:47 39.31058 -0.00733 36945 ft 451 kts 83°
2026-04-22 16:48 39.31458 0.07354 36928 ft 451 kts 83°
2026-04-22 16:48 39.31847 0.15399 36932 ft 452 kts 83°
2026-04-22 16:49 39.32235 0.23509 36937 ft 453 kts 83°
2026-04-22 16:49 39.32622 0.31627 36950 ft 453 kts 84°
2026-04-22 16:50 39.33005 0.39752 36965 ft 453 kts 83°
2026-04-22 16:50 39.33380 0.47885 36968 ft 454 kts 84°
2026-04-22 16:51 39.33750 0.56024 36964 ft 454 kts 84°
2026-04-22 16:51 39.34116 0.64169 36974 ft 454 kts 84°
2026-04-22 16:52 39.34472 0.72319 36973 ft 454 kts 84°
2026-04-22 16:52 39.34824 0.80473 36989 ft 455 kts 84°
2026-04-22 16:53 39.35173 0.88636 36990 ft 455 kts 84°
2026-04-22 16:53 39.35516 0.96802 36999 ft 455 kts 84°
2026-04-22 16:54 39.35852 1.04976 36988 ft 455 kts 84°
2026-04-22 16:54 39.36178 1.13153 36992 ft 456 kts 84°
2026-04-22 16:55 39.36505 1.21328 36992 ft 456 kts 84°
2026-04-22 16:55 39.36829 1.29516 36983 ft 456 kts 84°
2026-04-22 16:56 39.37133 1.37709 36981 ft 457 kts 84°
2026-04-22 16:56 39.37435 1.45907 36983 ft 457 kts 84°
2026-04-22 16:57 39.37738 1.54107 37002 ft 457 kts 85°
2026-04-22 16:57 39.38036 1.62311 36994 ft 457 kts 85°
2026-04-22 16:58 39.38283 1.69138 36993 ft 457 kts 85°
2026-04-22 16:58 39.38619 1.78733 36843 ft 458 kts 85°
2026-04-22 16:58 39.38761 1.82845 36579 ft 457 kts 85°
2026-04-22 16:59 39.38900 1.86893 36331 ft 457 kts 85°
2026-04-22 16:59 39.39038 1.91054 36086 ft 458 kts 85°
2026-04-22 16:59 39.39172 1.95173 35832 ft 458 kts 85°
2026-04-22 16:59 39.39303 1.99231 35590 ft 458 kts 86°
2026-04-22 17:00 39.39434 2.03338 35338 ft 457 kts 86°
2026-04-22 17:00 39.39699 2.11520 34847 ft 454 kts 86°
2026-04-22 17:00 39.39830 2.15592 34605 ft 453 kts 86°
2026-04-22 17:01 39.39957 2.19651 34365 ft 451 kts 86°
2026-04-22 17:01 39.40081 2.23701 34127 ft 450 kts 86°
2026-04-22 17:01 39.40201 2.27735 33877 ft 449 kts 86°
2026-04-22 17:01 39.40318 2.31755 33607 ft 446 kts 86°
2026-04-22 17:02 39.40433 2.35757 33338 ft 444 kts 86°
2026-04-22 17:02 39.40549 2.39742 33071 ft 442 kts 86°
2026-04-22 17:02 39.40665 2.43704 32806 ft 440 kts 86°
2026-04-22 17:02 39.40779 2.47651 32549 ft 439 kts 86°
2026-04-22 17:03 39.40892 2.51585 32287 ft 437 kts 86°
2026-04-22 17:03 39.41003 2.55502 32030 ft 435 kts 86°
2026-04-22 17:03 39.41111 2.59392 31723 ft 431 kts 87°
2026-04-22 17:03 39.41216 2.63246 31242 ft 428 kts 87°
2026-04-22 17:04 39.41319 2.67075 30755 ft 425 kts 87°
2026-04-22 17:04 39.41420 2.70885 30289 ft 422 kts 87°
2026-04-22 17:04 39.41518 2.74670 29782 ft 420 kts 87°
2026-04-22 17:04 39.41613 2.78425 29325 ft 415 kts 87°
2026-04-22 17:05 39.41706 2.82137 28876 ft 411 kts 87°
2026-04-22 17:05 39.41798 2.85803 28439 ft 406 kts 87°
2026-04-22 17:05 39.41891 2.89433 28014 ft 402 kts 87°
2026-04-22 17:05 39.41980 2.93020 27602 ft 398 kts 87°
2026-04-22 17:06 39.42068 2.96579 27176 ft 394 kts 87°
2026-04-22 17:06 39.42152 3.00105 26758 ft 391 kts 87°
2026-04-22 17:06 39.42236 3.03604 26328 ft 388 kts 86°
2026-04-22 17:06 39.42316 3.07074 25915 ft 385 kts 86°
2026-04-22 17:07 39.42394 3.10528 25473 ft 383 kts 86°
2026-04-22 17:07 39.42471 3.13970 25033 ft 382 kts 86°
2026-04-22 17:07 39.42548 3.17397 24588 ft 381 kts 86°
2026-04-22 17:07 39.42624 3.20815 24129 ft 380 kts 86°
2026-04-22 17:08 39.42912 3.24191 23679 ft 376 kts 75°
2026-04-22 17:08 39.43682 3.27397 23172 ft 371 kts 63°
2026-04-22 17:08 39.44875 3.30319 22729 ft 365 kts 55°
2026-04-22 17:08 39.46184 3.33118 22283 ft 363 kts 55°
2026-04-22 17:09 39.47475 3.35910 21857 ft 361 kts 56°
2026-04-22 17:09 39.48753 3.38694 21426 ft 359 kts 56°
2026-04-22 17:09 39.49594 3.40532 21143 ft 358 kts 56°
2026-04-22 17:09 39.51267 3.44187 20597 ft 355 kts 56°
2026-04-22 17:10 39.52521 3.46937 20166 ft 354 kts 56°
2026-04-22 17:10 39.53774 3.49680 19749 ft 353 kts 56°
2026-04-22 17:10 39.55027 3.52418 19337 ft 353 kts 56°
2026-04-22 17:10 39.56279 3.55153 18921 ft 353 kts 56°
2026-04-22 17:11 39.57527 3.57883 18503 ft 352 kts 56°
2026-04-22 17:11 39.58776 3.60619 18063 ft 352 kts 57°
2026-04-22 17:11 39.60019 3.63350 17640 ft 351 kts 56°
2026-04-22 17:11 39.61257 3.66068 17234 ft 349 kts 56°
2026-04-22 17:12 39.62492 3.68771 16827 ft 348 kts 56°
2026-04-22 17:12 39.63718 3.71463 16430 ft 346 kts 56°
2026-04-22 17:12 39.64938 3.74150 16029 ft 345 kts 56°
2026-04-22 17:12 39.66155 3.76830 15631 ft 344 kts 56°
2026-04-22 17:13 39.67366 3.79501 15243 ft 343 kts 56°
2026-04-22 17:13 39.68574 3.82163 14852 ft 342 kts 56°
2026-04-22 17:13 39.69779 3.84823 14459 ft 341 kts 56°
2026-04-22 17:13 39.70976 3.87474 14068 ft 340 kts 55°
2026-04-22 17:14 39.72171 3.90120 13657 ft 339 kts 55°
2026-04-22 17:14 39.73435 3.92675 13246 ft 332 kts 44°
2026-04-22 17:14 39.75197 3.94504 12787 ft 321 kts 22°
2026-04-22 17:14 39.77310 3.95279 12301 ft 313 kts
2026-04-22 17:15 39.78728 3.95190 12063 ft 306 kts 347°
2026-04-22 17:15 39.81453 3.94250 11565 ft 301 kts 344°
2026-04-22 17:15 39.83507 3.93739 11163 ft 300 kts 349°
2026-04-22 17:15 39.85586 3.93493 10791 ft 300 kts 355°
2026-04-22 17:16 39.87643 3.93522 10648 ft 291 kts
2026-04-22 17:16 39.89633 3.93789 10401 ft 286 kts
2026-04-22 17:16 39.91586 3.94272 10067 ft 285 kts 10°
2026-04-22 17:16 39.93495 3.94976 9704 ft 285 kts 15°
2026-04-22 17:17 39.95346 3.95920 9296 ft 286 kts 21°
2026-04-22 17:17 39.97122 3.97094 8885 ft 287 kts 26°
2026-04-22 17:17 39.98814 3.98494 8469 ft 289 kts 32°
2026-04-22 17:17 40.00406 4.00098 8080 ft 290 kts 37°
2026-04-22 17:18 40.01880 4.01891 7693 ft 290 kts 43°
2026-04-22 17:18 40.03223 4.03854 7303 ft 290 kts 48°
2026-04-22 17:18 40.04420 4.05980 6917 ft 290 kts 54°
2026-04-22 17:18 40.05443 4.08211 6535 ft 290 kts 60°
2026-04-22 17:19 40.07017 4.13045 5741 ft 289 kts 70°
2026-04-22 17:19 40.07876 4.18148 4939 ft 288 kts 82°
2026-04-22 17:20 40.07945 4.23348 3858 ft 295 kts 102°
2026-04-22 17:20 40.05243 4.26845 3292 ft 275 kts 172°
2026-04-22 17:21 40.03407 4.26733 3179 ft 258 kts 195°
2026-04-22 17:21 40.00192 4.25330 3026 ft 231 kts 202°
2026-04-22 17:22 39.97190 4.23987 3026 ft 228 kts 194°
2026-04-22 17:22 39.95629 4.23612 3028 ft 228 kts 190°
2026-04-22 17:22 39.92471 4.23038 3028 ft 229 kts 189°
2026-04-22 17:23 39.90892 4.22751 3027 ft 229 kts 189°
2026-04-22 17:23 39.87733 4.22145 3029 ft 230 kts 189°
2026-04-22 17:23 39.86201 4.21623 3027 ft 227 kts 211°
2026-04-22 17:24 39.85109 4.20212 3027 ft 222 kts 245°
2026-04-22 17:24 39.84821 4.18290 3028 ft 217 kts 279°
2026-04-22 17:24 39.85422 4.16529 3027 ft 215 kts 314°
2026-04-22 17:24 39.86690 4.15549 3028 ft 216 kts 348°
2026-04-22 17:25 39.88189 4.15599 3032 ft 219 kts
2026-04-22 17:25 39.89680 4.16019 3031 ft 220 kts 12°
2026-04-22 17:25 39.91168 4.16491 3030 ft 220 kts 12°
2026-04-22 17:25 39.92652 4.16970 3029 ft 220 kts 12°
2026-04-22 17:26 39.94196 4.17470 3029 ft 235 kts 12°
2026-04-22 17:26 39.95732 4.17967 3027 ft 223 kts 11°
2026-04-22 17:26 39.97225 4.18467 3028 ft 221 kts 13°
2026-04-22 17:26 39.98713 4.18970 2975 ft 220 kts 13°
2026-04-22 17:27 39.99690 4.19299 2780 ft 219 kts 13°
2026-04-22 17:27 40.01491 4.20357 2607 ft 212 kts 45°
2026-04-22 17:27 40.02140 4.22018 2514 ft 206 kts 82°
2026-04-22 17:27 40.01891 4.23810 2504 ft 204 kts 120°
2026-04-22 17:28 40.00872 4.25042 2507 ft 203 kts 156°
2026-04-22 17:28 39.99512 4.25138 2508 ft 199 kts 203°
2026-04-22 17:28 39.98259 4.24341 2427 ft 203 kts 201°
2026-04-22 17:28 39.96907 4.24008 2218 ft 192 kts 188°
2026-04-22 17:29 39.95618 4.23777 1975 ft 182 kts 188°
2026-04-22 17:29 39.94413 4.23540 1770 ft 167 kts 188°
2026-04-22 17:29 39.93315 4.23317 1528 ft 154 kts 188°
2026-04-22 17:29 39.92280 4.23105 1332 ft 149 kts 188°
2026-04-22 17:30 39.91268 4.22897 1140 ft 146 kts 188°
2026-04-22 17:30 39.90279 4.22693 948 ft 142 kts 188°
2026-04-22 17:30 39.89640 4.22562 829 ft 139 kts 189°
2026-04-22 17:30 39.88694 4.22367 634 ft 136 kts 189°
2026-04-22 17:31 39.87768 4.22170 459 ft 135 kts 189°
2026-04-22 17:31 39.86840 4.21983 311 ft 129 kts 189°
2026-04-22 17:31 39.86081 4.21825 303 ft 86 kts 189°
2026-04-22 17:31 39.85614 4.21757 295 ft 37 kts 172°
2026-04-22 17:32 39.85457 4.21818 284 ft 27 kts 155°
2026-04-22 17:32 39.85426 4.21925 283 ft 12 kts 15°
2026-04-22 17:32 39.85568 4.21960 287 ft 27 kts
2026-04-22 17:32 39.85691 4.21986 292 ft 26 kts
2026-04-22 17:33 39.85872 4.22024 296 ft 27 kts
2026-04-22 17:33 39.86079 4.22065 296 ft 33 kts
2026-04-22 17:33 39.86194 4.22151 294 ft 11 kts 111°
2026-04-22 17:33 39.86193 4.22256 291 ft 14 kts 39°
2026-04-22 17:34 39.86332 4.22289 288 ft 36 kts
2026-04-22 17:34 39.86513 4.22326 288 ft 16 kts 10°
2026-04-22 17:34 39.86532 4.22401 286 ft 10 kts 102°
2026-04-22 17:34 39.86529 4.22426 286 ft 0 kts 99°